Location: ??
(35.5052°N, 139.7262°E)
Time: 20:21:13
(UTC+00:00)

COSMOS 2251 DEB - Visible Passes

Search period start: 16 January 2022 00:00
Search period end: 26 January 2022 00:00
Orbit: 741 x 888 km, 74.1° (Epoch: 15 January)

Date Brightness Start Highest point End Pass type
(mag) Time Alt. Az. Time Alt. Az. Time Alt. Az.
21 Jan ? 09:46:30 10° N 09:47:14 13° NNE 09:47:14 13° NNE visible
22 Jan ? 09:23:55 10° NNE 09:25:29 15° NNE 09:25:29 15° NNE visible
22 Jan ? 11:05:45 10° NNW 11:06:48 16° NNW 11:06:48 16° NNW visible
23 Jan ? 09:01:29 10° NNE 09:03:59 15° NE 09:03:59 15° NE visible
23 Jan ? 10:42:37 10° NNW 10:45:18 28° NNW 10:45:18 28° NNW visible
24 Jan ? 08:39:29 10° NE 08:41:29 12° NE 08:42:49 11° ENE visible
24 Jan ? 10:19:33 10° NNW 10:24:10 57° NNW 10:24:10 57° NNW visible
25 Jan ? 09:56:32 10° NNW 10:02:23 70° ENE 10:03:41 52° SE visible
25 Jan ? 11:42:10 10° WNW 11:44:40 13° W 11:45:08 13° W visible
